Weather in Varazdin

Croatia     46°18′42″N   16°20′17″E
temp.,
°C
wind,
m/s
gust,
m/s
humid.,
%
clouds,
%
prec.,
mm/h
press.,
hPa
HPBL,
m
24 june, thu
thu2423:00+21ese118139 0.6 101511
02:00+20wsw11870 0.6 101511
05:00+19sw11870 0.0 101411
08:00+24wsw11720 0.0 1014177
11:00+31sw25410 0.0 1014807
14:00+34wsw463217 0.0 10142288
17:00+34sw61130100 0.0 10132143
20:00+27ssw38540 0.0 1012218
25 june, fri
fri2523:00+23s22615 0.0 101314
02:00+21sw226996 0.0 101330
05:00+21sw22744 0.0 101326
08:00+21ene35752 0.0 1016486
11:00+25ene45493 0.0 10161246
14:00+27ene3346100 0.0 10161869
17:00+28ne334313 0.0 10131441
20:00+20ne258111 0.8 101491
26 june, sat
sat2623:00+16nnw249929 1.4 1017109
02:00+15nw249821 1.5 1017128
05:00+13nw119746 0.3 101821
08:00+17nw128647 0.3 1019190
11:00+24nne23542 0.0 10181104
14:00+27nne224419 0.0 10171941
17:00+26ene225085 0.0 1016934
20:00+22se00675 0.0 101611
27 june, sun
sun2723:00+18n11690 0.0 101711
02:00+17nw11750 0.0 101711
05:00+15nnw11850 0.0 101711
08:00+20n11663 0.0 1018239
11:00+27ese12470 0.0 10171036
14:00+30se22340 0.0 10152060
17:00+30sse22321 0.0 10152114
20:00+24se11570 0.0 101511
28 june, mon
mon2823:00+20s22590 0.0 101613
02:00+19ssw11640 0.0 101611
05:00+18ssw11721 0.0 101611
08:00+23sse12610 0.0 1016212
11:00+28sse34442 0.0 10151030
14:00+32s34330 0.0 10131850
17:00+33ssw35285 0.0 10122265
20:00+26sse22560 0.0 101122